QPF
0.01 0.01 0.01 0.02 0.03 0.03 0.02 0.02 0.01 0.01 0.01 0.01 0.01 0.01 0.01 0.01 0.01 0.02 0.03 0.03 0.02 0.03 0.02 0.03 0.04 0.02 0.01 0.01 0.01 0.01 0.01 0.01 0.01 0.01 0.01 0.01 0.01 0.02 0.02 0.01 0.00 0.00 0.01
0.01 0.01 0.02 0.03 0.03 0.03 0.02 0.02 0.02 0.01 0.01 0.01 0.01 0.01 0.01 0.01 0.01 0.02 0.03 0.03 0.03 0.03 0.03 0.03 0.05 0.03 0.02 0.01 0.01 0.01 0.01 0.00 0.00 0.00 0.00 0.01 0.01 0.02 0.02 0.01 0.01 0.01 0.01
0.01 0.01 0.02 0.04 0.04 0.03 0.02 0.02 0.02 0.02 0.02 0.01 0.02 0.01 0.01 0.01 0.01 0.02 0.03 0.04 0.03 0.02 0.03 0.04 0.04 0.03 0.01 0.01 0.01 0.01 0.01 0.00 0.00 0.00 0.00 0.00 0.01 0.01 0.01 0.02 0.01 0.01 0.01
0.02 0.03 0.03 0.04 0.05 0.05 0.04 0.02 0.02 0.02 0.02 0.01 0.01 0.01 0.02 0.02 0.02 0.02 0.03 0.04 0.05 0.04 0.05 0.05 0.04 0.03 0.01 0.01 0.01 0.01 0.01 0.01 0.00 0.00 0.00 0.00 0.00 0.01 0.01 0.02 0.02 0.02 0.02
0.03 0.04 0.05 0.05 0.05 0.05 0.04 0.03 0.02 0.02 0.02 0.01 0.02 0.02 0.02 0.02 0.01 0.02 0.02 0.03 0.04 0.08 0.08 0.07 0.03 0.02 0.01 0.01 0.01 0.01 0.01 0.01 0.01 0.00 0.00 0.00 0.00 0.01 0.01 0.01 0.02 0.02 0.02
0.03 0.04 0.05 0.06 0.04 0.04 0.03 0.03 0.03 0.02 0.02 0.02 0.02 0.02 0.02 0.02 0.02 0.02 0.02 0.02 0.03 0.06 0.06 0.05 0.02 0.01 0.01 0.01 0.01 0.00 0.01 0.01 0.01 0.01 0.00 0.00 0.00 0.01 0.01 0.01 0.02 0.02 0.02
0.03 0.03 0.04 0.05 0.04 0.03 0.03 0.03 0.03 0.03 0.02 0.02 0.02 0.02 0.02 0.02 0.02 0.01 0.01 0.02 0.03 0.03 0.03 0.04 0.02 0.01 0.01 0.00 0.00 0.00 0.00 0.01 0.01 0.01 0.00 0.00 0.00 0.01 0.01 0.01 0.02 0.02 0.02
0.03 0.03 0.03 0.05 0.04 0.03 0.03 0.03 0.03 0.04 0.03 0.03 0.03 0.02 0.02 0.02 0.01 0.01 0.01 0.02 0.03 0.03 0.04 0.04 0.02 0.01 0.01 0.00 0.00 0.00 0.00 0.00 0.01 0.02 0.01 0.01 0.01 0.01 0.01 0.01 0.01 0.02 0.02
0.04 0.04 0.04 0.05 0.05 0.04 0.03 0.03 0.03 0.03 0.04 0.04 0.04 0.04 0.03 0.03 0.02 0.02 0.03 0.03 0.02 0.02 0.03 0.03 0.02 0.01 0.01 0.00 0.00 0.00 0.00 0.00 0.00 0.01 0.01 0.01 0.02 0.01 0.01 0.01 0.01 0.01 0.02
0.05 0.05 0.04 0.04 0.04 0.04 0.03 0.03 0.04 0.03 0.03 0.04 0.04 0.05 0.05 0.04 0.03 0.03 0.03 0.03 0.02 0.02 0.02 0.02 0.02 0.01 0.01 0.00 0.00 0.00 0.00 0.00 0.00 0.00 0.01 0.01 0.01 0.01 0.01 0.01 0.01 0.01 0.01
0.06 0.06 0.05 0.04 0.04 0.04 0.04 0.03 0.04 0.04 0.04 0.03 0.03 0.04 0.04 0.04 0.03 0.02 0.02 0.03 0.02 0.02 0.03 0.03 0.02 0.02 0.01 0.00 0.00 0.00 0.00 0.00 0.00 0.00 0.00 0.01 0.01 0.01 0.01 0.01 0.01 0.01 0.01
0.07 0.08 0.07 0.05 0.05 0.05 0.04 0.03 0.04 0.04 0.04 0.04 0.03 0.03 0.03 0.03 0.03 0.03 0.02 0.02 0.02 0.01 0.02 0.02 0.02 0.02 0.02 0.01 0.00 0.00 0.00 0.00 0.00 0.00 0.00 0.01 0.01 0.01 0.01 0.01 0.01 0.01 0.01
0.07 0.09 0.09 0.07 0.06 0.06 0.04 0.03 0.04 0.04 0.04 0.04 0.04 0.04 0.03 0.03 0.03 0.03 0.02 0.02 0.01 0.01 0.01 0.01 0.02 0.02 0.01 0.01 0.00 0.00 0.00 0.00 0.00 0.00 0.00 0.00 0.00 0.00 0.00 0.01 0.01 0.01 0.01
0.07 0.08 0.08 0.09 0.08 0.08 0.06 0.03 0.03 0.03 0.04 0.04 0.04 0.04 0.04 0.03 0.03 0.03 0.03 0.02 0.01 0.01 0.01 0.01 0.01 0.02 0.01 0.01 0.00 0.00 0.00 0.00 0.00 0.00 0.00 0.00 0.00 0.00 0.00 0.01 0.01 0.01 0.01
0.07 0.08 0.08 0.09 0.09 0.10 0.07 0.05 0.03 0.03 0.03 0.04 0.05 0.05 0.04 0.03 0.02 0.03 0.03 0.03 0.02 0.01 0.01 0.01 0.02 0.02 0.02 0.02 0.01 0.00 0.00 0.00 0.00 0.00 0.00 0.00 0.00 0.00 0.00 0.00 0.01 0.01 0.01
0.06 0.07 0.08 0.10 0.09 0.10 0.08 0.05 0.03 0.02 0.02 0.03 0.04 0.05 0.06 0.05 0.03 0.03 0.03 0.04 0.03 0.02 0.01 0.01 0.01 0.02 0.02 0.02 0.02 0.01 0.00 0.00 0.00 0.00 0.00 0.00 0.00 0.00 0.00 0.00 0.01 0.01 0.01
0.05 0.06 0.06 0.11 0.11 0.10 0.08 0.06 0.03 0.02 0.02 0.02 0.02 0.04 0.06 0.06 0.05 0.04 0.03 0.04 0.03 0.01 0.01 0.01 0.01 0.02 0.02 0.02 0.02 0.02 0.01 0.01 0.01 0.00 0.00 0.00 0.00 0.00 0.00 0.00 0.00 0.01 0.01
0.05 0.05 0.04 0.10 0.14 0.13 0.10 0.08 0.06 0.04 0.03 0.03 0.02 0.03 0.05 0.07 0.07 0.06 0.05 0.04 0.03 0.02 0.02 0.02 0.03 0.02 0.02 0.02 0.02 0.01 0.01 0.01 0.01 0.00 0.00 0.00 0.00 0.00 0.00 0.00 0.00 0.00 0.01
0.04 0.04 0.04 0.07 0.11 0.14 0.12 0.09 0.09 0.07 0.05 0.05 0.04 0.03 0.03 0.06 0.08 0.08 0.05 0.04 0.04 0.03 0.03 0.02 0.04 0.04 0.03 0.02 0.02 0.01 0.01 0.01 0.01 0.01 0.01 0.00 0.00 0.00 0.00 0.00 0.00 0.00 0.00
0.05 0.05 0.04 0.06 0.10 0.15 0.17 0.11 0.11 0.10 0.07 0.06 0.06 0.06 0.05 0.05 0.09 0.10 0.09 0.06 0.04 0.03 0.03 0.03 0.04 0.05 0.03 0.02 0.02 0.02 0.02 0.02 0.02 0.02 0.02 0.01 0.01 0.00 0.00 0.00 0.00 0.00 0.01
0.07 0.07 0.06 0.07 0.10 0.15 0.19 0.14 0.10 0.10 0.09 0.08 0.08 0.08 0.08 0.08 0.10 0.12 0.12 0.10 0.07 0.05 0.04 0.04 0.06 0.06 0.05 0.04 0.05 0.04 0.03 0.02 0.01 0.01 0.01 0.01 0.01 0.01 0.01 0.00 0.00 0.00 0.00
0.08 0.06 0.05 0.05 0.06 0.11 0.16 0.17 0.11 0.13 0.12 0.10 0.10 0.09 0.08 0.08 0.08 0.10 0.13 0.12 0.11 0.08 0.06 0.06 0.09 0.09 0.08 0.07 0.07 0.08 0.06 0.03 0.02 0.01 0.01 0.01 0.01 0.01 0.01 0.01 0.00 0.00 0.00
0.07 0.07 0.04 0.04 0.05 0.07 0.13 0.19 0.14 0.12 0.12 0.11 0.10 0.09 0.07 0.05 0.05 0.05 0.06 0.09 0.10 0.10 0.09 0.07 0.09 0.09 0.07 0.05 0.04 0.04 0.04 0.03 0.02 0.01 0.01 0.01 0.01 0.01 0.01 0.01 0.01 0.01 0.00
0.06 0.07 0.05 0.05 0.05 0.05 0.09 0.17 0.17 0.13 0.10 0.09 0.09 0.08 0.06 0.05 0.04 0.04 0.04 0.06 0.08 0.08 0.08 0.07 0.10 0.10 0.07 0.04 0.04 0.03 0.02 0.01 0.01 0.01 0.00 0.00 0.00 0.00 0.00 0.00 0.01 0.00 0.01
0.03 0.05 0.05 0.04 0.05 0.05 0.07 0.12 0.16 0.15 0.11 0.08 0.08 0.07 0.06 0.04 0.04 0.04 0.04 0.04 0.05 0.07 0.08 0.08 0.10 0.12 0.10 0.06 0.05 0.04 0.03 0.02 0.01 0.01 0.01 0.00 0.00 0.00 0.00 0.00 0.00 0.00 0.00
0.02 0.03 0.04 0.03 0.04 0.04 0.05 0.09 0.12 0.14 0.13 0.10 0.08 0.07 0.06 0.04 0.03 0.03 0.03 0.04 0.04 0.05 0.06 0.08 0.09 0.11 0.11 0.08 0.05 0.05 0.04 0.03 0.02 0.02 0.01 0.01 0.01 0.00 0.00 0.00 0.00 0.00 0.00
MSLP
1017.01 1016.68 1016.26 1015.84 1015.48 1015.20 1014.98 1014.80 1014.60 1014.35 1014.00 1013.58 1013.10 1012.62 1012.17 1011.80 1011.53 1011.36 1011.29 1011.28 1011.33 1011.42 1011.54 1011.70 1011.89 1012.11 1012.36 1012.62 1012.88 1013.11 1013.32 1013.50 1013.67 1013.84 1014.03 1014.25 1014.51 1014.80 1015.08 1015.35 1015.57 1015.72 1015.81
1016.63 1016.34 1015.99 1015.64 1015.35 1015.13 1014.96 1014.82 1014.65 1014.41 1014.09 1013.69 1013.25 1012.79 1012.38 1012.03 1011.76 1011.58 1011.48 1011.44 1011.44 1011.48 1011.55 1011.67 1011.83 1012.03 1012.28 1012.55 1012.82 1013.07 1013.31 1013.51 1013.69 1013.87 1014.06 1014.28 1014.54 1014.81 1015.10 1015.38 1015.63 1015.83 1015.96
1016.33 1016.08 1015.77 1015.48 1015.25 1015.07 1014.95 1014.83 1014.69 1014.48 1014.18 1013.82 1013.42 1013.01 1012.62 1012.29 1012.02 1011.81 1011.66 1011.55 1011.48 1011.45 1011.46 1011.52 1011.65 1011.84 1012.09 1012.38 1012.69 1013.00 1013.28 1013.53 1013.74 1013.94 1014.14 1014.34 1014.57 1014.82 1015.09 1015.37 1015.63 1015.86 1016.05
1016.13 1015.90 1015.64 1015.40 1015.20 1015.07 1014.97 1014.87 1014.74 1014.54 1014.28 1013.96 1013.59 1013.22 1012.86 1012.54 1012.26 1012.01 1011.80 1011.61 1011.46 1011.34 1011.27 1011.28 1011.38 1011.56 1011.83 1012.16 1012.52 1012.89 1013.24 1013.55 1013.82 1014.05 1014.25 1014.44 1014.63 1014.83 1015.06 1015.31 1015.57 1015.83 1016.06
1016.02 1015.82 1015.60 1015.39 1015.24 1015.13 1015.04 1014.94 1014.81 1014.62 1014.37 1014.07 1013.74 1013.40 1013.07 1012.76 1012.46 1012.18 1011.90 1011.64 1011.39 1011.19 1011.06 1011.01 1011.08 1011.25 1011.54 1011.91 1012.33 1012.77 1013.20 1013.58 1013.91 1014.18 1014.39 1014.55 1014.71 1014.86 1015.03 1015.24 1015.47 1015.73 1015.98
1015.99 1015.82 1015.64 1015.48 1015.35 1015.26 1015.17 1015.05 1014.90 1014.70 1014.45 1014.16 1013.85 1013.54 1013.23 1012.93 1012.62 1012.31 1011.99 1011.66 1011.35 1011.08 1010.88 1010.78 1010.81 1010.97 1011.26 1011.66 1012.14 1012.64 1013.14 1013.60 1013.99 1014.30 1014.53 1014.69 1014.80 1014.90 1015.01 1015.16 1015.35 1015.59 1015.86
1015.98 1015.86 1015.73 1015.63 1015.54 1015.45 1015.35 1015.21 1015.02 1014.79 1014.52 1014.22 1013.93 1013.64 1013.36 1013.07 1012.78 1012.45 1012.10 1011.74 1011.37 1011.05 1010.79 1010.64 1010.63 1010.76 1011.03 1011.44 1011.93 1012.48 1013.03 1013.56 1014.01 1014.37 1014.63 1014.80 1014.89 1014.95 1015.01 1015.10 1015.24 1015.45 1015.72
1015.96 1015.91 1015.86 1015.81 1015.76 1015.69 1015.58 1015.40 1015.17 1014.90 1014.60 1014.30 1014.01 1013.74 1013.48 1013.22 1012.94 1012.63 1012.27 1011.88 1011.49 1011.12 1010.82 1010.61 1010.54 1010.62 1010.85 1011.22 1011.70 1012.25 1012.84 1013.41 1013.92 1014.34 1014.66 1014.86 1014.96 1015.01 1015.03 1015.07 1015.18 1015.35 1015.59
1015.89 1015.92 1015.97 1016.00 1016.00 1015.95 1015.82 1015.62 1015.35 1015.04 1014.72 1014.40 1014.12 1013.87 1013.64 1013.41 1013.15 1012.85 1012.50 1012.10 1011.69 1011.29 1010.94 1010.68 1010.54 1010.54 1010.69 1010.99 1011.41 1011.94 1012.52 1013.12 1013.68 1014.17 1014.55 1014.81 1014.97 1015.04 1015.06 1015.09 1015.16 1015.30 1015.52
1015.76 1015.90 1016.04 1016.16 1016.22 1016.19 1016.06 1015.84 1015.55 1015.21 1014.87 1014.56 1014.29 1014.06 1013.85 1013.64 1013.40 1013.11 1012.76 1012.37 1011.94 1011.51 1011.11 1010.79 1010.57 1010.47 1010.52 1010.72 1011.06 1011.52 1012.08 1012.68 1013.28 1013.83 1014.30 1014.65 1014.88 1015.02 1015.08 1015.13 1015.20 1015.32 1015.52
1015.59 1015.83 1016.07 1016.26 1016.38 1016.38 1016.26 1016.04 1015.74 1015.40 1015.07 1014.77 1014.51 1014.30 1014.10 1013.90 1013.66 1013.37 1013.02 1012.61 1012.16 1011.70 1011.27 1010.89 1010.58 1010.39 1010.33 1010.42 1010.65 1011.02 1011.52 1012.10 1012.73 1013.34 1013.90 1014.35 1014.69 1014.92 1015.06 1015.16 1015.25 1015.38 1015.57
1015.39 1015.72 1016.04 1016.30 1016.46 1016.49 1016.39 1016.18 1015.90 1015.58 1015.27 1014.99 1014.76 1014.56 1014.36 1014.15 1013.90 1013.58 1013.20 1012.77 1012.30 1011.82 1011.36 1010.93 1010.56 1010.29 1010.12 1010.10 1010.22 1010.49 1010.91 1011.46 1012.09 1012.74 1013.37 1013.93 1014.39 1014.73 1014.97 1015.15 1015.29 1015.45 1015.64
1015.18 1015.58 1015.96 1016.26 1016.44 1016.49 1016.42 1016.24 1015.99 1015.72 1015.45 1015.21 1014.99 1014.79 1014.58 1014.34 1014.04 1013.68 1013.26 1012.80 1012.31 1011.82 1011.34 1010.89 1010.49 1010.16 1009.92 1009.80 1009.81 1009.99 1010.33 1010.82 1011.42 1012.10 1012.78 1013.43 1013.99 1014.44 1014.79 1015.06 1015.28 1015.48 1015.70
1014.96 1015.41 1015.81 1016.12 1016.32 1016.39 1016.34 1016.19 1016.00 1015.78 1015.57 1015.36 1015.17 1014.96 1014.71 1014.41 1014.05 1013.62 1013.16 1012.66 1012.17 1011.68 1011.22 1010.78 1010.38 1010.03 1009.75 1009.56 1009.50 1009.58 1009.83 1010.25 1010.81 1011.47 1012.18 1012.89 1013.53 1014.08 1014.53 1014.89 1015.18 1015.45 1015.70
1014.72 1015.19 1015.60 1015.90 1016.10 1016.17 1016.14 1016.05 1015.91 1015.76 1015.60 1015.43 1015.24 1015.01 1014.71 1014.34 1013.90 1013.41 1012.89 1012.38 1011.89 1011.43 1011.01 1010.63 1010.27 1009.94 1009.65 1009.42 1009.29 1009.29 1009.46 1009.79 1010.29 1010.92 1011.63 1012.35 1013.05 1013.67 1014.20 1014.64 1015.01 1015.34 1015.64
1014.43 1014.91 1015.31 1015.60 1015.78 1015.86 1015.87 1015.82 1015.74 1015.66 1015.55 1015.41 1015.21 1014.94 1014.58 1014.13 1013.62 1013.06 1012.50 1011.98 1011.52 1011.11 1010.77 1010.45 1010.16 1009.87 1009.59 1009.35 1009.18 1009.11 1009.20 1009.46 1009.88 1010.46 1011.14 1011.86 1012.58 1013.25 1013.83 1014.34 1014.78 1015.16 1015.52
1014.07 1014.56 1014.95 1015.23 1015.41 1015.51 1015.54 1015.55 1015.53 1015.50 1015.43 1015.31 1015.09 1014.77 1014.34 1013.82 1013.23 1012.63 1012.05 1011.54 1011.11 1010.77 1010.50 1010.27 1010.04 1009.79 1009.53 1009.28 1009.07 1008.96 1008.98 1009.16 1009.53 1010.06 1010.71 1011.42 1012.15 1012.85 1013.48 1014.03 1014.52 1014.96 1015.36
1013.62 1014.13 1014.53 1014.82 1015.01 1015.14 1015.22 1015.28 1015.32 1015.33 1015.29 1015.16 1014.92 1014.55 1014.05 1013.46 1012.82 1012.18 1011.59 1011.10 1010.72 1010.44 1010.23 1010.05 1009.87 1009.64 1009.38 1009.11 1008.86 1008.70 1008.67 1008.81 1009.14 1009.65 1010.29 1011.01 1011.76 1012.49 1013.16 1013.76 1014.29 1014.76 1015.20
1013.09 1013.64 1014.07 1014.39 1014.62 1014.78 1014.92 1015.04 1015.14 1015.19 1015.16 1015.02 1014.74 1014.31 1013.75 1013.11 1012.42 1011.77 1011.19 1010.72 1010.38 1010.13 1009.95 1009.78 1009.58 1009.33 1009.03 1008.71 1008.41 1008.21 1008.15 1008.28 1008.62 1009.14 1009.82 1010.60 1011.40 1012.18 1012.90 1013.54 1014.10 1014.61 1015.07
1012.50 1013.12 1013.60 1013.96 1014.25 1014.48 1014.68 1014.86 1015.01 1015.09 1015.07 1014.91 1014.58 1014.10 1013.50 1012.81 1012.10 1011.43 1010.86 1010.41 1010.07 1009.82 1009.61 1009.39 1009.12 1008.78 1008.38 1007.98 1007.62 1007.38 1007.32 1007.48 1007.87 1008.48 1009.26 1010.13 1011.03 1011.90 1012.69 1013.38 1013.99 1014.51 1014.98
1011.90 1012.58 1013.13 1013.56 1013.91 1014.22 1014.50 1014.74 1014.94 1015.04 1015.02 1014.83 1014.47 1013.95 1013.30 1012.58 1011.86 1011.20 1010.62 1010.16 1009.80 1009.49 1009.19 1008.85 1008.43 1007.94 1007.41 1006.89 1006.45 1006.18 1006.14 1006.37 1006.87 1007.62 1008.55 1009.57 1010.62 1011.61 1012.50 1013.28 1013.93 1014.47 1014.95
1011.35 1012.09 1012.69 1013.19 1013.61 1013.99 1014.34 1014.65 1014.89 1015.02 1014.99 1014.78 1014.39 1013.83 1013.16 1012.43 1011.71 1011.04 1010.46 1009.96 1009.53 1009.11 1008.66 1008.14 1007.53 1006.84 1006.13 1005.47 1004.95 1004.66 1004.66 1004.99 1005.64 1006.57 1007.70 1008.92 1010.15 1011.30 1012.32 1013.18 1013.89 1014.46 1014.95
1010.87 1011.66 1012.30 1012.85 1013.34 1013.79 1014.20 1014.56 1014.83 1014.98 1014.95 1014.73 1014.32 1013.75 1013.07 1012.34 1011.61 1010.93 1010.33 1009.77 1009.24 1008.68 1008.05 1007.31 1006.47 1005.55 1004.65 1003.84 1003.24 1002.94 1003.00 1003.45 1004.27 1005.41 1006.75 1008.19 1009.62 1010.94 1012.09 1013.06 1013.83 1014.44 1014.93
1010.51 1011.31 1011.98 1012.55 1013.08 1013.57 1014.03 1014.43 1014.74 1014.90 1014.88 1014.66 1014.25 1013.68 1013.00 1012.28 1011.55 1010.86 1010.21 1009.58 1008.93 1008.21 1007.38 1006.41 1005.34 1004.21 1003.12 1002.19 1001.52 1001.22 1001.35 1001.92 1002.91 1004.24 1005.79 1007.43 1009.04 1010.52 1011.80 1012.86 1013.70 1014.34 1014.86
1010.27 1011.04 1011.70 1012.28 1012.82 1013.33 1013.82 1014.25 1014.58 1014.76 1014.76 1014.55 1014.15 1013.60 1012.94 1012.22 1011.50 1010.79 1010.10 1009.39 1008.62 1007.74 1006.72 1005.56 1004.29 1002.98 1001.75 1000.72 1000.01 999.72 999.91 1000.59 1001.71 1003.19 1004.90 1006.69 1008.44 1010.04 1011.42 1012.57 1013.46 1014.16 1014.70
1010.13 1010.85 1011.47 1012.02 1012.55 1013.07 1013.57 1014.01 1014.36 1014.57 1014.58 1014.40 1014.03 1013.50 1012.87 1012.17 1011.46 1010.74 1010.00 1009.21 1008.34 1007.32 1006.15 1004.84 1003.42 1001.99 1000.67 999.59 998.87 998.61 998.85 999.60 1000.81 1002.38 1004.16 1006.04 1007.86 1009.53 1010.98 1012.17 1013.12 1013.86 1014.44
Thickness
5729 5733 5734 5734 5735 5735 5735 5735 5734 5734 5733 5732 5732 5731 5730 5730 5729 5729 5728 5727 5726 5726 5725 5725 5724 5723 5721 5720 5719 5718 5717 5716 5715 5714 5714 5713 5712 5711 5710 5709 5708 5708 5707
5730 5731 5731 5732 5732 5732 5732 5732 5731 5731 5730 5729 5729 5728 5727 5727 5726 5726 5725 5724 5723 5723 5722 5721 5720 5720 5718 5717 5716 5715 5714 5712 5711 5710 5710 5709 5709 5708 5707 5706 5705 5704 5704
5727 5727 5728 5728 5728 5728 5728 5729 5728 5727 5727 5726 5726 5725 5724 5724 5723 5722 5721 5721 5720 5719 5718 5718 5717 5716 5715 5714 5713 5711 5710 5709 5707 5706 5705 5705 5705 5704 5703 5702 5701 5701 5700
5723 5723 5724 5724 5724 5724 5724 5724 5725 5724 5723 5723 5722 5722 5721 5720 5719 5718 5718 5717 5716 5716 5715 5714 5713 5712 5711 5710 5709 5708 5707 5705 5704 5703 5702 5701 5701 5701 5699 5698 5698 5697 5696
5717 5718 5719 5719 5719 5720 5720 5720 5720 5720 5720 5719 5719 5718 5717 5717 5715 5714 5714 5713 5712 5712 5711 5710 5709 5708 5708 5707 5706 5704 5703 5702 5700 5699 5698 5697 5697 5697 5695 5694 5693 5692 5691
5711 5712 5713 5714 5714 5715 5715 5715 5716 5716 5716 5715 5715 5714 5713 5713 5711 5710 5710 5709 5708 5708 5707 5706 5705 5705 5704 5703 5702 5700 5699 5697 5696 5695 5694 5693 5693 5692 5692 5690 5689 5688 5687
5704 5706 5706 5708 5709 5709 5710 5710 5710 5711 5711 5711 5711 5710 5709 5708 5707 5706 5706 5705 5704 5703 5703 5702 5701 5700 5699 5698 5697 5696 5695 5693 5692 5691 5690 5689 5689 5688 5687 5686 5685 5684 5682
5698 5699 5700 5701 5703 5703 5704 5705 5705 5706 5706 5706 5706 5705 5705 5704 5703 5702 5701 5701 5700 5699 5698 5697 5696 5696 5695 5694 5693 5692 5690 5689 5687 5686 5686 5685 5684 5683 5682 5681 5680 5679 5678
5690 5692 5694 5695 5696 5696 5697 5699 5699 5700 5700 5701 5701 5700 5699 5699 5698 5697 5696 5696 5695 5694 5693 5693 5692 5691 5690 5689 5688 5687 5685 5684 5683 5681 5681 5680 5680 5679 5678 5676 5675 5674 5672
5682 5685 5686 5688 5689 5690 5690 5692 5693 5693 5694 5695 5695 5695 5694 5693 5693 5692 5691 5691 5690 5689 5688 5688 5687 5686 5685 5684 5683 5681 5680 5679 5678 5677 5676 5675 5675 5674 5673 5671 5670 5668 5667
5674 5677 5679 5680 5682 5683 5684 5684 5686 5686 5687 5687 5688 5688 5688 5687 5687 5686 5685 5685 5684 5684 5683 5682 5681 5680 5679 5678 5677 5676 5674 5673 5672 5671 5671 5670 5670 5669 5668 5666 5665 5663 5662
5665 5669 5672 5673 5674 5676 5677 5678 5678 5679 5679 5680 5680 5681 5681 5681 5680 5679 5679 5679 5678 5677 5676 5676 5675 5674 5673 5672 5671 5670 5669 5668 5667 5666 5665 5665 5665 5664 5662 5661 5659 5658 5656
5657 5661 5664 5666 5667 5669 5670 5671 5671 5671 5671 5672 5672 5673 5674 5674 5674 5673 5673 5672 5672 5671 5670 5669 5668 5667 5667 5666 5665 5664 5663 5662 5661 5660 5659 5659 5659 5658 5656 5655 5653 5652 5650
5651 5653 5657 5659 5660 5661 5662 5664 5664 5664 5664 5665 5665 5665 5666 5666 5666 5666 5665 5665 5665 5664 5663 5662 5661 5660 5659 5659 5659 5658 5657 5655 5655 5654 5653 5653 5652 5651 5650 5649 5647 5646 5644
5645 5646 5650 5652 5652 5653 5654 5655 5656 5656 5657 5657 5657 5657 5658 5659 5659 5659 5658 5657 5657 5657 5656 5655 5654 5653 5652 5652 5651 5651 5651 5649 5648 5648 5647 5646 5645 5645 5644 5643 5641 5639 5638
5637 5639 5642 5643 5644 5646 5646 5647 5648 5648 5649 5649 5650 5650 5651 5651 5651 5651 5651 5650 5650 5649 5649 5648 5647 5646 5644 5644 5644 5644 5644 5643 5642 5641 5640 5639 5638 5637 5637 5636 5634 5633 5632
5630 5632 5635 5637 5637 5638 5639 5638 5640 5640 5641 5642 5642 5642 5643 5644 5644 5644 5643 5642 5642 5642 5641 5640 5639 5638 5637 5636 5636 5636 5636 5636 5635 5634 5633 5632 5631 5630 5629 5628 5627 5626 5624
5623 5624 5627 5629 5629 5630 5631 5630 5631 5632 5633 5633 5634 5634 5636 5637 5637 5636 5636 5635 5635 5634 5633 5632 5632 5630 5629 5628 5627 5628 5628 5628 5628 5627 5626 5624 5623 5622 5621 5620 5619 5618 5617
5615 5616 5618 5620 5621 5622 5622 5622 5622 5623 5624 5625 5626 5626 5627 5628 5629 5629 5628 5627 5627 5626 5625 5624 5623 5622 5620 5620 5619 5619 5619 5619 5619 5619 5618 5616 5615 5614 5612 5611 5610 5609 5608
5606 5608 5609 5611 5612 5612 5613 5613 5613 5614 5615 5616 5617 5618 5619 5619 5620 5620 5620 5619 5619 5617 5617 5616 5614 5613 5612 5611 5611 5610 5610 5610 5610 5610 5609 5607 5606 5605 5603 5602 5600 5599 5598
5596 5597 5599 5600 5601 5602 5603 5603 5603 5605 5606 5607 5608 5609 5609 5610 5610 5611 5611 5611 5610 5609 5607 5606 5605 5603 5602 5600 5599 5598 5599 5600 5601 5601 5600 5598 5597 5595 5594 5592 5591 5590 5589
5585 5587 5589 5590 5592 5594 5594 5595 5595 5596 5597 5598 5599 5600 5600 5601 5601 5602 5602 5602 5601 5599 5598 5596 5595 5592 5591 5590 5588 5586 5586 5587 5589 5592 5591 5589 5587 5585 5584 5583 5582 5581 5580
5574 5576 5579 5581 5582 5584 5585 5585 5586 5585 5586 5587 5588 5590 5592 5592 5592 5592 5592 5592 5591 5590 5588 5586 5585 5583 5580 5579 5578 5577 5576 5578 5577 5580 5580 5579 5577 5576 5574 5573 5572 5571 5570
5566 5567 5569 5571 5572 5573 5575 5575 5576 5576 5577 5579 5580 5581 5582 5582 5582 5582 5582 5581 5580 5579 5578 5577 5576 5574 5572 5569 5568 5567 5567 5568 5566 5567 5568 5567 5567 5566 5564 5563 5562 5561 5560
5557 5558 5559 5562 5563 5564 5565 5566 5566 5566 5567 5569 5569 5570 5571 5572 5573 5573 5572 5571 5570 5569 5568 5568 5566 5564 5563 5562 5560 5558 5556 5555 5555 5555 5556 5556 5555 5555 5554 5553 5552 5551 5550
5546 5547 5549 5551 5553 5554 5554 5555 5557 5557 5557 5558 5559 5560 5561 5561 5562 5562 5561 5560 5560 5559 5559 5558 5556 5554 5553 5553 5552 5550 5549 5547 5546 5545 5544 5545 5545 5545 5544 5544 5542 5541 5540